Time,TemperatureF,DewpointF,PressureIn,WindDirection,WindDirectionDegrees,WindSpeedMPH,WindSpeedGustMPH,Humidity,HourlyPrecipIn,Conditions,Clouds,dailyrainin,SoftwareType,DateUTC
2013-09-21 00:00:00,74.8,68.6,30.10,ENE,68,2.0,-999.0,81,0.00,,,0.01,Wunderground v.1.15,2013-09-21 10:00:00,
2013-09-21 00:05:00,74.8,68.6,30.10,ENE,68,2.0,-999.0,81,0.00,,,0.01,Wunderground v.1.15,2013-09-21 10:05:00,
2013-09-21 00:10:00,74.8,68.6,30.10,ENE,68,2.0,-999.0,81,0.00,,,0.01,Wunderground v.1.15,2013-09-21 10:10:00,
2013-09-21 00:15:00,74.8,68.6,30.10,ENE,68,2.0,-999.0,81,0.00,,,0.01,Wunderground v.1.15,2013-09-21 10:15:00,
2013-09-21 00:20:00,74.8,68.6,30.10,ENE,68,2.0,-999.0,81,0.00,,,0.01,Wunderground v.1.15,2013-09-21 10:20:00,
2013-09-21 00:25:00,74.8,68.6,30.10,ENE,68,2.0,-999.0,81,0.00,,,0.01,Wunderground v.1.15,2013-09-21 10:25:00,
2013-09-21 00:30:00,74.8,68.6,30.10,ENE,68,2.0,-999.0,81,0.00,,,0.01,Wunderground v.1.15,2013-09-21 10:30:00,
2013-09-21 00:35:00,74.8,68.6,30.10,ENE,68,2.0,-999.0,81,0.00,,,0.01,Wunderground v.1.15,2013-09-21 10:35:00,
2013-09-21 00:40:00,74.8,68.6,30.10,ENE,68,2.0,-999.0,81,0.00,,,0.01,Wunderground v.1.15,2013-09-21 10:40:00,
2013-09-21 00:45:00,74.4,68.2,30.09,NE,45,3.0,-999.0,81,0.00,,,0.01,Wunderground v.1.15,2013-09-21 10:45:00,
2013-09-21 00:50:00,74.4,68.2,30.09,NE,45,3.0,-999.0,81,0.00,,,0.01,Wunderground v.1.15,2013-09-21 10:50:00,
2013-09-21 00:55:00,74.4,68.2,30.09,NE,45,3.0,-999.0,81,0.00,,,0.01,Wunderground v.1.15,2013-09-21 10:55:00,
2013-09-21 01:00:00,74.4,68.2,30.09,NE,45,3.0,-999.0,81,0.00,,,0.01,Wunderground v.1.15,2013-09-21 11:00:00,
2013-09-21 01:05:00,74.4,68.2,30.09,NE,45,3.0,-999.0,81,0.00,,,0.01,Wunderground v.1.15,2013-09-21 11:05:00,
2013-09-21 01:10:00,74.4,68.2,30.09,NE,45,3.0,-999.0,81,0.00,,,0.01,Wunderground v.1.15,2013-09-21 11:10:00,
2013-09-21 01:15:00,74.3,68.4,30.08,NE,45,1.0,-999.0,82,0.00,,,0.01,Wunderground v.1.15,2013-09-21 11:15:00,
2013-09-21 01:20:00,74.3,68.4,30.08,NE,45,1.0,-999.0,82,0.00,,,0.01,Wunderground v.1.15,2013-09-21 11:20:00,
2013-09-21 01:25:00,74.3,68.4,30.08,NE,45,1.0,-999.0,82,0.00,,,0.01,Wunderground v.1.15,2013-09-21 11:25:00,
2013-09-21 01:30:00,74.3,68.4,30.08,NE,45,1.0,-999.0,82,0.00,,,0.01,Wunderground v.1.15,2013-09-21 11:30:00,
2013-09-21 01:35:00,74.3,68.4,30.08,NE,45,1.0,-999.0,82,0.00,,,0.01,Wunderground v.1.15,2013-09-21 11:35:00,
2013-09-21 01:40:00,74.3,68.4,30.08,NE,45,1.0,-999.0,82,0.00,,,0.01,Wunderground v.1.15,2013-09-21 11:40:00,
2013-09-21 01:45:00,74.2,68.7,30.07,NE,45,2.0,-999.0,83,0.00,,,0.01,Wunderground v.1.15,2013-09-21 11:45:00,
2013-09-21 01:50:00,74.2,68.7,30.07,NE,45,2.0,-999.0,83,0.00,,,0.01,Wunderground v.1.15,2013-09-21 11:50:00,
2013-09-21 01:55:00,74.2,68.7,30.07,NE,45,2.0,-999.0,83,0.00,,,0.01,Wunderground v.1.15,2013-09-21 11:55:00,
2013-09-21 02:00:00,74.2,68.7,30.07,NE,45,2.0,-999.0,83,0.00,,,0.01,Wunderground v.1.15,2013-09-21 12:00:00,
2013-09-21 02:05:00,74.2,68.7,30.07,NE,45,2.0,-999.0,83,0.00,,,0.01,Wunderground v.1.15,2013-09-21 12:05:00,
2013-09-21 02:10:00,74.2,68.7,30.07,NE,45,2.0,-999.0,83,0.00,,,0.01,Wunderground v.1.15,2013-09-21 12:10:00,
2013-09-21 02:15:00,73.9,67.7,30.06,NE,45,4.0,-999.0,81,0.00,,,0.01,Wunderground v.1.15,2013-09-21 12:15:00,
2013-09-21 02:20:00,73.9,67.7,30.06,NE,45,4.0,-999.0,81,0.00,,,0.01,Wunderground v.1.15,2013-09-21 12:20:00,
2013-09-21 02:25:00,73.9,67.7,30.06,NE,45,4.0,-999.0,81,0.00,,,0.01,Wunderground v.1.15,2013-09-21 12:25:00,
2013-09-21 02:30:00,73.9,67.7,30.06,NE,45,4.0,-999.0,81,0.00,,,0.01,Wunderground v.1.15,2013-09-21 12:30:00,
2013-09-21 02:35:00,73.9,67.7,30.06,NE,45,4.0,-999.0,81,0.00,,,0.01,Wunderground v.1.15,2013-09-21 12:35:00,
2013-09-21 02:40:00,73.9,67.7,30.06,NE,45,4.0,-999.0,81,0.00,,,0.01,Wunderground v.1.15,2013-09-21 12:40:00,
2013-09-21 02:45:00,74.3,68.1,30.05,NE,45,4.0,-999.0,81,0.00,,,0.01,Wunderground v.1.15,2013-09-21 12:45:00,
2013-09-21 02:50:00,74.3,68.1,30.05,NE,45,4.0,-999.0,81,0.00,,,0.01,Wunderground v.1.15,2013-09-21 12:50:00,
2013-09-21 02:55:00,74.3,68.1,30.05,NE,45,4.0,-999.0,81,0.00,,,0.01,Wunderground v.1.15,2013-09-21 12:55:00,
2013-09-21 03:00:00,74.3,68.1,30.05,NE,45,4.0,-999.0,81,0.00,,,0.01,Wunderground v.1.15,2013-09-21 13:00:00,
2013-09-21 03:05:00,74.3,68.1,30.05,NE,45,4.0,-999.0,81,0.00,,,0.01,Wunderground v.1.15,2013-09-21 13:05:00,
2013-09-21 03:10:00,74.3,68.1,30.05,NE,45,4.0,-999.0,81,0.00,,,0.01,Wunderground v.1.15,2013-09-21 13:10:00,
2013-09-21 03:15:00,74.2,68.0,30.06,NE,45,5.0,-999.0,81,0.00,,,0.01,Wunderground v.1.15,2013-09-21 13:15:00,
2013-09-21 03:20:00,74.2,68.0,30.06,NE,45,5.0,-999.0,81,0.00,,,0.01,Wunderground v.1.15,2013-09-21 13:20:00,
2013-09-21 03:25:00,74.2,68.0,30.06,NE,45,5.0,-999.0,81,0.00,,,0.01,Wunderground v.1.15,2013-09-21 13:25:00,
2013-09-21 03:30:00,74.2,68.0,30.06,NE,45,5.0,-999.0,81,0.00,,,0.01,Wunderground v.1.15,2013-09-21 13:30:00,
2013-09-21 03:35:00,74.2,68.0,30.06,NE,45,5.0,-999.0,81,0.00,,,0.01,Wunderground v.1.15,2013-09-21 13:35:00,
2013-09-21 03:40:00,74.2,68.0,30.06,NE,45,5.0,-999.0,81,0.00,,,0.01,Wunderground v.1.15,2013-09-21 13:40:00,
2013-09-21 03:45:00,73.6,65.9,30.06,East,90,5.0,-999.0,77,0.00,,,0.01,Wunderground v.1.15,2013-09-21 13:45:00,
2013-09-21 03:50:00,73.6,65.9,30.06,East,90,5.0,-999.0,77,0.00,,,0.01,Wunderground v.1.15,2013-09-21 13:50:00,
2013-09-21 03:55:00,73.6,65.9,30.06,East,90,5.0,-999.0,77,0.00,,,0.01,Wunderground v.1.15,2013-09-21 13:55:00,
2013-09-21 04:00:00,73.6,65.9,30.06,East,90,5.0,-999.0,77,0.00,,,0.01,Wunderground v.1.15,2013-09-21 14:00:00,
2013-09-21 04:05:00,73.6,65.9,30.06,East,90,5.0,-999.0,77,0.00,,,0.01,Wunderground v.1.15,2013-09-21 14:05:00,
2013-09-21 04:10:00,73.6,65.9,30.06,East,90,5.0,-999.0,77,0.00,,,0.01,Wunderground v.1.15,2013-09-21 14:10:00,
2013-09-21 04:15:00,73.6,66.7,30.05,ENE,68,3.0,-999.0,79,0.00,,,0.01,Wunderground v.1.15,2013-09-21 14:15:00,
2013-09-21 04:20:00,73.6,66.7,30.05,ENE,68,3.0,-999.0,79,0.00,,,0.01,Wunderground v.1.15,2013-09-21 14:20:00,
2013-09-21 04:25:00,73.6,66.7,30.05,ENE,68,3.0,-999.0,79,0.00,,,0.01,Wunderground v.1.15,2013-09-21 14:25:00,
2013-09-21 04:30:00,73.6,66.7,30.05,ENE,68,3.0,-999.0,79,0.00,,,0.01,Wunderground v.1.15,2013-09-21 14:30:00,
2013-09-21 04:35:00,73.6,66.7,30.05,ENE,68,3.0,-999.0,79,0.00,,,0.01,Wunderground v.1.15,2013-09-21 14:35:00,
2013-09-21 04:40:00,73.6,66.7,30.05,ENE,68,3.0,-999.0,79,0.00,,,0.01,Wunderground v.1.15,2013-09-21 14:40:00,
2013-09-21 04:45:00,73.0,65.7,30.05,NE,45,4.0,-999.0,78,0.00,,,0.01,Wunderground v.1.15,2013-09-21 14:45:00,
2013-09-21 04:50:00,73.0,65.7,30.05,NE,45,4.0,-999.0,78,0.00,,,0.01,Wunderground v.1.15,2013-09-21 14:50:00,
2013-09-21 04:55:00,73.0,65.7,30.05,NE,45,4.0,-999.0,78,0.00,,,0.01,Wunderground v.1.15,2013-09-21 14:55:00,
2013-09-21 05:00:00,73.0,65.7,30.05,NE,45,4.0,-999.0,78,0.00,,,0.01,Wunderground v.1.15,2013-09-21 15:00:00,
2013-09-21 05:05:00,73.0,65.7,30.05,NE,45,4.0,-999.0,78,0.00,,,0.01,Wunderground v.1.15,2013-09-21 15:05:00,
2013-09-21 05:10:00,73.0,65.7,30.05,NE,45,4.0,-999.0,78,0.00,,,0.01,Wunderground v.1.15,2013-09-21 15:10:00,
2013-09-21 05:15:00,73.5,66.9,30.05,NE,45,7.0,-999.0,80,0.00,,,0.01,Wunderground v.1.15,2013-09-21 15:15:00,
2013-09-21 05:20:00,73.5,66.9,30.05,NE,45,7.0,-999.0,80,0.00,,,0.01,Wunderground v.1.15,2013-09-21 15:20:00,
2013-09-21 05:25:00,73.5,66.9,30.05,NE,45,7.0,-999.0,80,0.00,,,0.01,Wunderground v.1.15,2013-09-21 15:25:00,
2013-09-21 05:30:00,73.5,66.9,30.05,NE,45,7.0,-999.0,80,0.00,,,0.01,Wunderground v.1.15,2013-09-21 15:30:00,
2013-09-21 05:35:00,73.5,66.9,30.05,NE,45,7.0,-999.0,80,0.00,,,0.01,Wunderground v.1.15,2013-09-21 15:35:00,
2013-09-21 05:40:00,73.5,66.9,30.05,NE,45,7.0,-999.0,80,0.00,,,0.01,Wunderground v.1.15,2013-09-21 15:40:00,
2013-09-21 05:45:00,72.7,66.2,30.06,NE,45,5.0,-999.0,80,0.00,,,0.01,Wunderground v.1.15,2013-09-21 15:45:00,
2013-09-21 05:50:00,72.7,66.2,30.06,NE,45,5.0,-999.0,80,0.00,,,0.01,Wunderground v.1.15,2013-09-21 15:50:00,
2013-09-21 05:55:00,72.7,66.2,30.06,NE,45,5.0,-999.0,80,0.00,,,0.01,Wunderground v.1.15,2013-09-21 15:55:00,
2013-09-21 06:00:00,72.7,66.2,30.06,NE,45,5.0,-999.0,80,0.00,,,0.01,Wunderground v.1.15,2013-09-21 16:00:00,
2013-09-21 06:05:00,72.7,66.2,30.06,NE,45,5.0,-999.0,80,0.00,,,0.01,Wunderground v.1.15,2013-09-21 16:05:00,
2013-09-21 06:10:00,72.7,66.2,30.06,NE,45,5.0,-999.0,80,0.00,,,0.01,Wunderground v.1.15,2013-09-21 16:10:00,
2013-09-21 06:15:00,73.4,66.5,30.06,NE,45,5.0,-999.0,79,0.00,,,0.01,Wunderground v.1.15,2013-09-21 16:15:00,
2013-09-21 06:20:00,73.4,66.5,30.06,NE,45,5.0,-999.0,79,0.00,,,0.01,Wunderground v.1.15,2013-09-21 16:20:00,
2013-09-21 06:25:00,73.4,66.5,30.06,NE,45,5.0,-999.0,79,0.00,,,0.01,Wunderground v.1.15,2013-09-21 16:25:00,
2013-09-21 06:30:00,73.4,66.5,30.06,NE,45,5.0,-999.0,79,0.00,,,0.01,Wunderground v.1.15,2013-09-21 16:30:00,
2013-09-21 06:35:00,73.4,66.5,30.06,NE,45,5.0,-999.0,79,0.00,,,0.01,Wunderground v.1.15,2013-09-21 16:35:00,
2013-09-21 06:40:00,73.4,66.5,30.06,NE,45,5.0,-999.0,79,0.00,,,0.01,Wunderground v.1.15,2013-09-21 16:40:00,
2013-09-21 06:45:00,74.0,66.7,30.07,NE,45,4.0,-999.0,78,0.00,,,0.01,Wunderground v.1.15,2013-09-21 16:45:00,
2013-09-21 06:50:00,74.0,66.7,30.07,NE,45,4.0,-999.0,78,0.00,,,0.01,Wunderground v.1.15,2013-09-21 16:50:00,
2013-09-21 06:55:00,74.0,66.7,30.07,NE,45,4.0,-999.0,78,0.00,,,0.01,Wunderground v.1.15,2013-09-21 16:55:00,
2013-09-21 07:00:00,74.0,66.7,30.07,NE,45,4.0,-999.0,78,0.00,,,0.01,Wunderground v.1.15,2013-09-21 17:00:00,
2013-09-21 07:05:00,74.0,66.7,30.07,NE,45,4.0,-999.0,78,0.00,,,0.01,Wunderground v.1.15,2013-09-21 17:05:00,
2013-09-21 07:10:00,74.0,66.7,30.07,NE,45,4.0,-999.0,78,0.00,,,0.01,Wunderground v.1.15,2013-09-21 17:10:00,
2013-09-21 07:15:00,74.7,67.4,30.08,NE,45,4.0,-999.0,78,0.00,,,0.01,Wunderground v.1.15,2013-09-21 17:15:00,
2013-09-21 07:20:00,74.7,67.4,30.08,NE,45,4.0,-999.0,78,0.00,,,0.01,Wunderground v.1.15,2013-09-21 17:20:00,
2013-09-21 07:25:00,74.7,67.4,30.08,NE,45,4.0,-999.0,78,0.00,,,0.01,Wunderground v.1.15,2013-09-21 17:25:00,
2013-09-21 07:30:00,74.7,67.4,30.08,NE,45,4.0,-999.0,78,0.00,,,0.01,Wunderground v.1.15,2013-09-21 17:30:00,
2013-09-21 07:35:00,74.7,67.4,30.08,NE,45,4.0,-999.0,78,0.00,,,0.01,Wunderground v.1.15,2013-09-21 17:35:00,
2013-09-21 07:40:00,74.7,67.4,30.08,NE,45,4.0,-999.0,78,0.00,,,0.01,Wunderground v.1.15,2013-09-21 17:40:00,
2013-09-21 07:45:00,76.1,69.8,30.08,NE,45,6.0,-999.0,81,0.00,,,0.01,Wunderground v.1.15,2013-09-21 17:45:00,
2013-09-21 07:50:00,76.1,69.8,30.08,NE,45,6.0,-999.0,81,0.00,,,0.01,Wunderground v.1.15,2013-09-21 17:50:00,
2013-09-21 07:55:00,76.1,69.8,30.08,NE,45,6.0,-999.0,81,0.00,,,0.01,Wunderground v.1.15,2013-09-21 17:55:00,
2013-09-21 08:00:00,76.1,69.8,30.08,NE,45,6.0,-999.0,81,0.00,,,0.01,Wunderground v.1.15,2013-09-21 18:00:00,
2013-09-21 08:05:00,76.1,69.8,30.08,NE,45,6.0,-999.0,81,0.00,,,0.01,Wunderground v.1.15,2013-09-21 18:05:00,
2013-09-21 08:10:00,76.1,69.8,30.08,NE,45,6.0,-999.0,81,0.00,,,0.01,Wunderground v.1.15,2013-09-21 18:10:00,
2013-09-21 08:15:00,76.5,67.2,30.09,NE,45,6.0,-999.0,73,0.00,,,0.01,Wunderground v.1.15,2013-09-21 18:15:00,
2013-09-21 08:20:00,76.5,67.2,30.09,NE,45,6.0,-999.0,73,0.00,,,0.01,Wunderground v.1.15,2013-09-21 18:20:00,
2013-09-21 08:25:00,76.5,67.2,30.09,NE,45,6.0,-999.0,73,0.00,,,0.01,Wunderground v.1.15,2013-09-21 18:25:00,
2013-09-21 08:30:00,76.5,67.2,30.09,NE,45,6.0,-999.0,73,0.00,,,0.01,Wunderground v.1.15,2013-09-21 18:30:00,
2013-09-21 08:35:00,76.5,67.2,30.09,NE,45,6.0,-999.0,73,0.00,,,0.01,Wunderground v.1.15,2013-09-21 18:35:00,
2013-09-21 08:40:00,76.5,67.2,30.09,NE,45,6.0,-999.0,73,0.00,,,0.01,Wunderground v.1.15,2013-09-21 18:40:00,
2013-09-21 08:45:00,78.9,65.7,30.09,East,90,5.0,-999.0,64,0.00,,,0.01,Wunderground v.1.15,2013-09-21 18:45:00,
2013-09-21 08:50:00,78.9,65.7,30.09,East,90,5.0,-999.0,64,0.00,,,0.01,Wunderground v.1.15,2013-09-21 18:50:00,
2013-09-21 08:55:00,78.9,65.7,30.09,East,90,5.0,-999.0,64,0.00,,,0.01,Wunderground v.1.15,2013-09-21 18:55:00,
2013-09-21 09:00:00,78.9,65.7,30.09,East,90,5.0,-999.0,64,0.00,,,0.01,Wunderground v.1.15,2013-09-21 19:00:00,
2013-09-21 09:05:00,78.9,65.7,30.09,East,90,5.0,-999.0,64,0.00,,,0.01,Wunderground v.1.15,2013-09-21 19:05:00,
2013-09-21 09:10:00,78.9,65.7,30.09,East,90,5.0,-999.0,64,0.00,,,0.01,Wunderground v.1.15,2013-09-21 19:10:00,
2013-09-21 09:15:00,81.8,67.5,30.09,East,90,4.0,-999.0,62,0.00,,,0.01,Wunderground v.1.15,2013-09-21 19:15:00,
2013-09-21 09:20:00,81.8,67.5,30.09,East,90,4.0,-999.0,62,0.00,,,0.01,Wunderground v.1.15,2013-09-21 19:20:00,
2013-09-21 09:25:00,81.8,67.5,30.09,East,90,4.0,-999.0,62,0.00,,,0.01,Wunderground v.1.15,2013-09-21 19:25:00,
2013-09-21 09:30:00,81.8,67.5,30.09,East,90,4.0,-999.0,62,0.00,,,0.01,Wunderground v.1.15,2013-09-21 19:30:00,
2013-09-21 09:35:00,81.8,67.5,30.09,East,90,4.0,-999.0,62,0.00,,,0.01,Wunderground v.1.15,2013-09-21 19:35:00,
2013-09-21 09:40:00,81.8,67.5,30.09,East,90,4.0,-999.0,62,0.00,,,0.01,Wunderground v.1.15,2013-09-21 19:40:00,
2013-09-21 09:45:00,83.7,66.8,30.08,NE,45,7.0,-999.0,57,0.00,,,0.01,Wunderground v.1.15,2013-09-21 19:45:00,
2013-09-21 09:50:00,83.7,66.8,30.08,NE,45,7.0,-999.0,57,0.00,,,0.01,Wunderground v.1.15,2013-09-21 19:50:00,
2013-09-21 09:55:00,83.7,66.8,30.08,NE,45,7.0,-999.0,57,0.00,,,0.01,Wunderground v.1.15,2013-09-21 19:55:00,
2013-09-21 10:00:00,83.7,66.8,30.08,NE,45,7.0,-999.0,57,0.00,,,0.01,Wunderground v.1.15,2013-09-21 20:00:00,
2013-09-21 10:05:00,83.7,66.8,30.08,NE,45,7.0,-999.0,57,0.00,,,0.01,Wunderground v.1.15,2013-09-21 20:05:00,
2013-09-21 10:10:00,83.7,66.8,30.08,NE,45,7.0,-999.0,57,0.00,,,0.01,Wunderground v.1.15,2013-09-21 20:10:00,
2013-09-21 10:15:00,85.3,68.3,30.08,NE,45,10.0,-999.0,57,0.00,,,0.01,Wunderground v.1.15,2013-09-21 20:15:00,
2013-09-21 10:20:00,85.3,68.3,30.08,NE,45,10.0,-999.0,57,0.00,,,0.01,Wunderground v.1.15,2013-09-21 20:20:00,
2013-09-21 10:25:00,85.3,68.3,30.08,NE,45,10.0,-999.0,57,0.00,,,0.01,Wunderground v.1.15,2013-09-21 20:25:00,
2013-09-21 10:30:00,85.3,68.3,30.08,NE,45,10.0,-999.0,57,0.00,,,0.01,Wunderground v.1.15,2013-09-21 20:30:00,
2013-09-21 10:35:00,85.3,68.3,30.08,NE,45,10.0,-999.0,57,0.00,,,0.01,Wunderground v.1.15,2013-09-21 20:35:00,
2013-09-21 10:40:00,85.3,68.3,30.08,NE,45,10.0,-999.0,57,0.00,,,0.01,Wunderground v.1.15,2013-09-21 20:40:00,
2013-09-21 10:45:00,86.0,68.0,30.08,NE,45,10.0,-999.0,55,0.00,,,0.01,Wunderground v.1.15,2013-09-21 20:45:00,
2013-09-21 10:50:00,86.0,68.0,30.08,NE,45,10.0,-999.0,55,0.00,,,0.01,Wunderground v.1.15,2013-09-21 20:50:00,
2013-09-21 10:55:00,86.0,68.0,30.08,NE,45,10.0,-999.0,55,0.00,,,0.01,Wunderground v.1.15,2013-09-21 20:55:00,
2013-09-21 11:00:00,86.0,68.0,30.08,NE,45,10.0,-999.0,55,0.00,,,0.01,Wunderground v.1.15,2013-09-21 21:00:00,
2013-09-21 11:05:00,86.0,68.0,30.08,NE,45,10.0,-999.0,55,0.00,,,0.01,Wunderground v.1.15,2013-09-21 21:05:00,
2013-09-21 11:10:00,86.0,68.0,30.08,NE,45,10.0,-999.0,55,0.00,,,0.01,Wunderground v.1.15,2013-09-21 21:10:00,
2013-09-21 11:15:00,87.1,69.5,30.06,NE,45,10.0,-999.0,56,0.00,,,0.01,Wunderground v.1.15,2013-09-21 21:15:00,
2013-09-21 11:20:00,87.1,69.5,30.06,NE,45,10.0,-999.0,56,0.00,,,0.01,Wunderground v.1.15,2013-09-21 21:20:00,
2013-09-21 11:25:00,87.1,69.5,30.06,NE,45,10.0,-999.0,56,0.00,,,0.01,Wunderground v.1.15,2013-09-21 21:25:00,
2013-09-21 11:30:00,87.1,69.5,30.06,NE,45,10.0,-999.0,56,0.00,,,0.01,Wunderground v.1.15,2013-09-21 21:30:00,
2013-09-21 11:35:00,87.1,69.5,30.06,NE,45,10.0,-999.0,56,0.00,,,0.01,Wunderground v.1.15,2013-09-21 21:35:00,
2013-09-21 11:40:00,87.1,69.5,30.06,NE,45,10.0,-999.0,56,0.00,,,0.01,Wunderground v.1.15,2013-09-21 21:40:00,
2013-09-21 11:45:00,87.3,68.6,30.05,NE,45,9.0,-999.0,54,0.00,,,0.01,Wunderground v.1.15,2013-09-21 21:45:00,
2013-09-21 11:50:00,87.3,68.6,30.05,NE,45,9.0,-999.0,54,0.00,,,0.01,Wunderground v.1.15,2013-09-21 21:50:00,
2013-09-21 11:55:00,87.3,68.6,30.05,NE,45,9.0,-999.0,54,0.00,,,0.01,Wunderground v.1.15,2013-09-21 21:55:00,
2013-09-21 12:00:00,87.3,68.6,30.05,NE,45,9.0,-999.0,54,0.00,,,0.01,Wunderground v.1.15,2013-09-21 22:00:00,
2013-09-21 12:05:00,87.3,68.6,30.05,NE,45,9.0,-999.0,54,0.00,,,0.01,Wunderground v.1.15,2013-09-21 22:05:00,
2013-09-21 12:10:00,87.3,68.6,30.05,NE,45,9.0,-999.0,54,0.00,,,0.01,Wunderground v.1.15,2013-09-21 22:10:00,
2013-09-21 12:15:00,87.8,70.1,30.04,NE,45,9.0,-999.0,56,0.00,,,0.01,Wunderground v.1.15,2013-09-21 22:15:00,
2013-09-21 12:20:00,87.8,70.1,30.04,NE,45,9.0,-999.0,56,0.00,,,0.01,Wunderground v.1.15,2013-09-21 22:20:00,
2013-09-21 12:25:00,87.8,70.1,30.04,NE,45,9.0,-999.0,56,0.00,,,0.01,Wunderground v.1.15,2013-09-21 22:25:00,
2013-09-21 12:30:00,87.8,70.1,30.04,NE,45,9.0,-999.0,56,0.00,,,0.01,Wunderground v.1.15,2013-09-21 22:30:00,
2013-09-21 12:35:00,87.8,70.1,30.04,NE,45,9.0,-999.0,56,0.00,,,0.01,Wunderground v.1.15,2013-09-21 22:35:00,
2013-09-21 12:40:00,87.8,70.1,30.04,NE,45,9.0,-999.0,56,0.00,,,0.01,Wunderground v.1.15,2013-09-21 22:40:00,
2013-09-21 12:45:00,88.1,70.9,30.04,NE,45,11.0,-999.0,57,0.00,,,0.01,Wunderground v.1.15,2013-09-21 22:45:00,
2013-09-21 12:50:00,88.1,70.9,30.04,NE,45,11.0,-999.0,57,0.00,,,0.01,Wunderground v.1.15,2013-09-21 22:50:00,
2013-09-21 12:55:00,88.1,70.9,30.04,NE,45,11.0,-999.0,57,0.00,,,0.01,Wunderground v.1.15,2013-09-21 22:55:00,
2013-09-21 13:00:00,88.1,70.9,30.04,NE,45,11.0,-999.0,57,0.00,,,0.01,Wunderground v.1.15,2013-09-21 23:00:00,
2013-09-21 13:05:00,88.1,70.9,30.04,NE,45,11.0,-999.0,57,0.00,,,0.01,Wunderground v.1.15,2013-09-21 23:05:00,
2013-09-21 13:10:00,88.1,70.9,30.04,NE,45,11.0,-999.0,57,0.00,,,0.01,Wunderground v.1.15,2013-09-21 23:10:00,
2013-09-21 13:15:00,87.3,70.7,30.03,NE,45,9.0,-999.0,58,0.00,,,0.01,Wunderground v.1.15,2013-09-21 23:15:00,
2013-09-21 13:20:00,87.3,70.7,30.03,NE,45,9.0,-999.0,58,0.00,,,0.01,Wunderground v.1.15,2013-09-21 23:20:00,
2013-09-21 13:25:00,87.3,70.7,30.03,NE,45,9.0,-999.0,58,0.00,,,0.01,Wunderground v.1.15,2013-09-21 23:25:00,
2013-09-21 13:30:00,87.3,70.7,30.03,NE,45,9.0,-999.0,58,0.00,,,0.01,Wunderground v.1.15,2013-09-21 23:30:00,
2013-09-21 13:35:00,87.3,70.7,30.03,NE,45,9.0,-999.0,58,0.00,,,0.01,Wunderground v.1.15,2013-09-21 23:35:00,
2013-09-21 13:40:00,87.3,70.7,30.03,NE,45,9.0,-999.0,58,0.00,,,0.01,Wunderground v.1.15,2013-09-21 23:40:00,
2013-09-21 13:45:00,88.3,69.5,30.03,ENE,68,8.0,-999.0,54,0.00,,,0.01,Wunderground v.1.15,2013-09-21 23:45:00,
2013-09-21 13:50:00,88.3,69.5,30.03,ENE,68,8.0,-999.0,54,0.00,,,0.01,Wunderground v.1.15,2013-09-21 23:50:00,
2013-09-21 13:55:00,88.3,69.5,30.03,ENE,68,8.0,-999.0,54,0.00,,,0.01,Wunderground v.1.15,2013-09-21 23:55:00,
2013-09-21 14:00:00,88.3,69.5,30.03,ENE,68,8.0,-999.0,54,0.00,,,0.01,Wunderground v.1.15,2013-09-22 00:00:00,
2013-09-21 14:05:00,88.3,69.5,30.03,ENE,68,8.0,-999.0,54,0.00,,,0.01,Wunderground v.1.15,2013-09-22 00:05:00,
2013-09-21 14:10:00,88.3,69.5,30.03,ENE,68,8.0,-999.0,54,0.00,,,0.01,Wunderground v.1.15,2013-09-22 00:10:00,
2013-09-21 14:15:00,89.2,70.4,30.02,ENE,68,7.0,-999.0,54,0.00,,,0.01,Wunderground v.1.15,2013-09-22 00:15:00,
2013-09-21 14:20:00,89.2,70.4,30.02,ENE,68,7.0,-999.0,54,0.00,,,0.01,Wunderground v.1.15,2013-09-22 00:20:00,
2013-09-21 14:25:00,89.2,70.4,30.02,ENE,68,7.0,-999.0,54,0.00,,,0.01,Wunderground v.1.15,2013-09-22 00:25:00,
2013-09-21 14:30:00,89.2,70.4,30.02,ENE,68,7.0,-999.0,54,0.00,,,0.01,Wunderground v.1.15,2013-09-22 00:30:00,
2013-09-21 14:35:00,89.2,70.4,30.02,ENE,68,7.0,-999.0,54,0.00,,,0.01,Wunderground v.1.15,2013-09-22 00:35:00,
2013-09-21 14:40:00,89.2,70.4,30.02,ENE,68,7.0,-999.0,54,0.00,,,0.01,Wunderground v.1.15,2013-09-22 00:40:00,
2013-09-21 14:45:00,87.2,74.5,30.02,ENE,68,6.0,-999.0,66,0.00,,,0.01,Wunderground v.1.15,2013-09-22 00:45:00,
2013-09-21 14:50:00,87.2,74.5,30.02,ENE,68,6.0,-999.0,66,0.00,,,0.01,Wunderground v.1.15,2013-09-22 00:50:00,
2013-09-21 14:55:00,87.2,74.5,30.02,ENE,68,6.0,-999.0,66,0.00,,,0.01,Wunderground v.1.15,2013-09-22 00:55:00,
2013-09-21 15:00:00,87.2,74.5,30.02,ENE,68,6.0,-999.0,66,0.00,,,0.01,Wunderground v.1.15,2013-09-22 01:00:00,
2013-09-21 15:05:00,87.2,74.5,30.02,ENE,68,6.0,-999.0,66,0.00,,,0.01,Wunderground v.1.15,2013-09-22 01:05:00,
2013-09-21 15:10:00,87.2,74.5,30.02,ENE,68,6.0,-999.0,66,0.00,,,0.01,Wunderground v.1.15,2013-09-22 01:10:00,
2013-09-21 15:15:00,82.1,68.7,30.01,ENE,68,8.0,-999.0,64,0.00,,,0.01,Wunderground v.1.15,2013-09-22 01:15:00,
2013-09-21 15:20:00,82.1,68.7,30.01,ENE,68,8.0,-999.0,64,0.00,,,0.01,Wunderground v.1.15,2013-09-22 01:20:00,
2013-09-21 15:25:00,82.1,68.7,30.01,ENE,68,8.0,-999.0,64,0.00,,,0.01,Wunderground v.1.15,2013-09-22 01:25:00,
2013-09-21 15:30:00,82.1,68.7,30.01,ENE,68,8.0,-999.0,64,0.00,,,0.01,Wunderground v.1.15,2013-09-22 01:30:00,
2013-09-21 15:35:00,82.1,68.7,30.01,ENE,68,8.0,-999.0,64,0.00,,,0.01,Wunderground v.1.15,2013-09-22 01:35:00,
2013-09-21 15:40:00,82.1,68.7,30.01,ENE,68,8.0,-999.0,64,0.00,,,0.01,Wunderground v.1.15,2013-09-22 01:40:00,
2013-09-21 15:45:00,82.1,68.7,30.00,NE,45,8.0,-999.0,64,0.00,,,0.01,Wunderground v.1.15,2013-09-22 01:45:00,
2013-09-21 15:50:00,82.1,68.7,30.00,NE,45,8.0,-999.0,64,0.00,,,0.01,Wunderground v.1.15,2013-09-22 01:50:00,
2013-09-21 15:55:00,82.1,68.7,30.00,NE,45,8.0,-999.0,64,0.00,,,0.01,Wunderground v.1.15,2013-09-22 01:55:00,
2013-09-21 16:00:00,82.1,68.7,30.00,NE,45,8.0,-999.0,64,0.00,,,0.01,Wunderground v.1.15,2013-09-22 02:00:00,
2013-09-21 16:05:00,82.1,68.7,30.00,NE,45,8.0,-999.0,64,0.00,,,0.01,Wunderground v.1.15,2013-09-22 02:05:00,
2013-09-21 16:10:00,82.1,68.7,30.00,NE,45,8.0,-999.0,64,0.00,,,0.01,Wunderground v.1.15,2013-09-22 02:10:00,
2013-09-21 16:15:00,82.1,67.8,30.01,NE,45,9.0,-999.0,62,0.00,,,0.01,Wunderground v.1.15,2013-09-22 02:15:00,
2013-09-21 16:20:00,82.1,67.8,30.01,NE,45,9.0,-999.0,62,0.00,,,0.01,Wunderground v.1.15,2013-09-22 02:20:00,
2013-09-21 16:25:00,82.1,67.8,30.01,NE,45,9.0,-999.0,62,0.00,,,0.01,Wunderground v.1.15,2013-09-22 02:25:00,
2013-09-21 16:30:00,82.1,67.8,30.01,NE,45,9.0,-999.0,62,0.00,,,0.01,Wunderground v.1.15,2013-09-22 02:30:00,
2013-09-21 16:35:00,82.1,67.8,30.01,NE,45,9.0,-999.0,62,0.00,,,0.01,Wunderground v.1.15,2013-09-22 02:35:00,
2013-09-21 16:40:00,82.1,67.8,30.01,NE,45,9.0,-999.0,62,0.00,,,0.01,Wunderground v.1.15,2013-09-22 02:40:00,
2013-09-21 16:45:00,82.5,68.2,30.01,NE,45,9.0,-999.0,62,0.00,,,0.01,Wunderground v.1.15,2013-09-22 02:45:00,
2013-09-21 16:50:00,82.5,68.2,30.01,NE,45,9.0,-999.0,62,0.00,,,0.01,Wunderground v.1.15,2013-09-22 02:50:00,
2013-09-21 16:55:00,82.5,68.2,30.01,NE,45,9.0,-999.0,62,0.00,,,0.01,Wunderground v.1.15,2013-09-22 02:55:00,
2013-09-21 17:00:00,82.5,68.2,30.01,NE,45,9.0,-999.0,62,0.00,,,0.01,Wunderground v.1.15,2013-09-22 03:00:00,
2013-09-21 17:05:00,82.5,68.2,30.01,NE,45,9.0,-999.0,62,0.00,,,0.01,Wunderground v.1.15,2013-09-22 03:05:00,
2013-09-21 17:10:00,82.5,68.2,30.01,NE,45,9.0,-999.0,62,0.00,,,0.01,Wunderground v.1.15,2013-09-22 03:10:00,
2013-09-21 17:15:00,81.9,68.1,30.01,NE,45,9.0,-999.0,63,0.00,,,0.01,Wunderground v.1.15,2013-09-22 03:15:00,
2013-09-21 17:20:00,81.9,68.1,30.01,NE,45,9.0,-999.0,63,0.00,,,0.01,Wunderground v.1.15,2013-09-22 03:20:00,
2013-09-21 17:25:00,81.9,68.1,30.01,NE,45,9.0,-999.0,63,0.00,,,0.01,Wunderground v.1.15,2013-09-22 03:25:00,
2013-09-21 17:30:00,81.9,68.1,30.01,NE,45,9.0,-999.0,63,0.00,,,0.01,Wunderground v.1.15,2013-09-22 03:30:00,
2013-09-21 17:35:00,81.9,68.1,30.01,NE,45,9.0,-999.0,63,0.00,,,0.01,Wunderground v.1.15,2013-09-22 03:35:00,
2013-09-21 17:40:00,81.9,68.1,30.01,NE,45,9.0,-999.0,63,0.00,,,0.01,Wunderground v.1.15,2013-09-22 03:40:00,
2013-09-21 17:45:00,80.2,67.8,30.01,NE,45,9.0,-999.0,66,0.00,,,0.01,Wunderground v.1.15,2013-09-22 03:45:00,
2013-09-21 17:50:00,80.2,67.8,30.01,NE,45,9.0,-999.0,66,0.00,,,0.01,Wunderground v.1.15,2013-09-22 03:50:00,
2013-09-21 17:55:00,80.2,67.8,30.01,NE,45,9.0,-999.0,66,0.00,,,0.01,Wunderground v.1.15,2013-09-22 03:55:00,
2013-09-21 18:00:00,80.2,67.8,30.01,NE,45,9.0,-999.0,66,0.00,,,0.01,Wunderground v.1.15,2013-09-22 04:00:00,
2013-09-21 18:05:00,80.2,67.8,30.01,NE,45,9.0,-999.0,66,0.00,,,0.01,Wunderground v.1.15,2013-09-22 04:05:00,
2013-09-21 18:10:00,80.2,67.8,30.01,NE,45,9.0,-999.0,66,0.00,,,0.01,Wunderground v.1.15,2013-09-22 04:10:00,
2013-09-21 18:15:00,79.0,68.8,30.03,NE,45,10.0,-999.0,71,0.00,,,0.01,Wunderground v.1.15,2013-09-22 04:15:00,
2013-09-21 18:20:00,79.0,68.8,30.03,NE,45,10.0,-999.0,71,0.00,,,0.01,Wunderground v.1.15,2013-09-22 04:20:00,
2013-09-21 18:25:00,79.0,68.8,30.03,NE,45,10.0,-999.0,71,0.00,,,0.01,Wunderground v.1.15,2013-09-22 04:25:00,
2013-09-21 18:30:00,79.0,68.8,30.03,NE,45,10.0,-999.0,71,0.00,,,0.01,Wunderground v.1.15,2013-09-22 04:30:00,
2013-09-21 18:35:00,79.0,68.8,30.03,NE,45,10.0,-999.0,71,0.00,,,0.01,Wunderground v.1.15,2013-09-22 04:35:00,
2013-09-21 18:40:00,79.0,68.8,30.03,NE,45,10.0,-999.0,71,0.00,,,0.01,Wunderground v.1.15,2013-09-22 04:40:00,
2013-09-21 18:45:00,78.1,67.5,30.04,NE,45,9.0,-999.0,70,0.00,,,0.01,Wunderground v.1.15,2013-09-22 04:45:00,
2013-09-21 18:50:00,78.1,67.5,30.04,NE,45,9.0,-999.0,70,0.00,,,0.01,Wunderground v.1.15,2013-09-22 04:50:00,
2013-09-21 18:55:00,78.1,67.5,30.04,NE,45,9.0,-999.0,70,0.00,,,0.01,Wunderground v.1.15,2013-09-22 04:55:00,
2013-09-21 19:00:00,78.1,67.5,30.04,NE,45,9.0,-999.0,70,0.00,,,0.01,Wunderground v.1.15,2013-09-22 05:00:00,
2013-09-21 19:05:00,78.1,67.5,30.04,NE,45,9.0,-999.0,70,0.00,,,0.01,Wunderground v.1.15,2013-09-22 05:05:00,
2013-09-21 19:10:00,78.1,67.5,30.04,NE,45,9.0,-999.0,70,0.00,,,0.01,Wunderground v.1.15,2013-09-22 05:10:00,
2013-09-21 19:15:00,77.6,67.4,30.05,NE,45,7.0,-999.0,71,0.00,,,0.01,Wunderground v.1.15,2013-09-22 05:15:00,
2013-09-21 19:20:00,77.6,67.4,30.05,NE,45,7.0,-999.0,71,0.00,,,0.01,Wunderground v.1.15,2013-09-22 05:20:00,
2013-09-21 19:25:00,77.6,67.4,30.05,NE,45,7.0,-999.0,71,0.00,,,0.01,Wunderground v.1.15,2013-09-22 05:25:00,
2013-09-21 19:30:00,77.6,67.4,30.05,NE,45,7.0,-999.0,71,0.00,,,0.01,Wunderground v.1.15,2013-09-22 05:30:00,
2013-09-21 19:35:00,77.6,67.4,30.05,NE,45,7.0,-999.0,71,0.00,,,0.01,Wunderground v.1.15,2013-09-22 05:35:00,
2013-09-21 19:40:00,77.6,67.4,30.05,NE,45,7.0,-999.0,71,0.00,,,0.01,Wunderground v.1.15,2013-09-22 05:40:00,
2013-09-21 19:45:00,77.2,67.5,30.05,NE,45,8.0,-999.0,72,0.00,,,0.01,Wunderground v.1.15,2013-09-22 05:45:00,
2013-09-21 19:50:00,77.2,67.5,30.05,NE,45,8.0,-999.0,72,0.00,,,0.01,Wunderground v.1.15,2013-09-22 05:50:00,
2013-09-21 19:55:00,77.2,67.5,30.05,NE,45,8.0,-999.0,72,0.00,,,0.01,Wunderground v.1.15,2013-09-22 05:55:00,
2013-09-21 20:00:00,77.2,67.5,30.05,NE,45,8.0,-999.0,72,0.00,,,0.01,Wunderground v.1.15,2013-09-22 06:00:00,
2013-09-21 20:05:00,77.2,67.5,30.05,NE,45,8.0,-999.0,72,0.00,,,0.01,Wunderground v.1.15,2013-09-22 06:05:00,
2013-09-21 20:10:00,77.2,67.5,30.05,NE,45,8.0,-999.0,72,0.00,,,0.01,Wunderground v.1.15,2013-09-22 06:10:00,
2013-09-21 20:15:00,77.1,66.6,30.07,NE,45,8.0,-999.0,70,0.00,,,0.01,Wunderground v.1.15,2013-09-22 06:15:00,
2013-09-21 20:20:00,77.1,66.6,30.07,NE,45,8.0,-999.0,70,0.00,,,0.01,Wunderground v.1.15,2013-09-22 06:20:00,
2013-09-21 20:25:00,77.1,66.6,30.07,NE,45,8.0,-999.0,70,0.00,,,0.01,Wunderground v.1.15,2013-09-22 06:25:00,
2013-09-21 20:30:00,77.1,66.6,30.07,NE,45,8.0,-999.0,70,0.00,,,0.01,Wunderground v.1.15,2013-09-22 06:30:00,
2013-09-21 20:35:00,77.1,66.6,30.07,NE,45,8.0,-999.0,70,0.00,,,0.01,Wunderground v.1.15,2013-09-22 06:35:00,
2013-09-21 20:40:00,77.1,66.6,30.07,NE,45,8.0,-999.0,70,0.00,,,0.01,Wunderground v.1.15,2013-09-22 06:40:00,
2013-09-21 20:45:00,77.0,67.3,30.08,NE,45,7.0,-999.0,72,0.00,,,0.01,Wunderground v.1.15,2013-09-22 06:45:00,
2013-09-21 20:50:00,77.0,67.3,30.08,NE,45,7.0,-999.0,72,0.00,,,0.01,Wunderground v.1.15,2013-09-22 06:50:00,
2013-09-21 20:55:00,77.0,67.3,30.08,NE,45,7.0,-999.0,72,0.00,,,0.01,Wunderground v.1.15,2013-09-22 06:55:00,
2013-09-21 21:00:00,77.0,67.3,30.08,NE,45,7.0,-999.0,72,0.00,,,0.01,Wunderground v.1.15,2013-09-22 07:00:00,
2013-09-21 21:05:00,77.0,67.3,30.08,NE,45,7.0,-999.0,72,0.00,,,0.01,Wunderground v.1.15,2013-09-22 07:05:00,
2013-09-21 21:10:00,77.0,67.3,30.08,NE,45,7.0,-999.0,72,0.00,,,0.01,Wunderground v.1.15,2013-09-22 07:10:00,
2013-09-21 21:15:00,76.6,68.1,30.09,NE,45,6.0,-999.0,75,0.00,,,0.01,Wunderground v.1.15,2013-09-22 07:15:00,
2013-09-21 21:20:00,76.6,68.1,30.09,NE,45,6.0,-999.0,75,0.00,,,0.01,Wunderground v.1.15,2013-09-22 07:20:00,
2013-09-21 21:25:00,76.6,68.1,30.09,NE,45,6.0,-999.0,75,0.00,,,0.01,Wunderground v.1.15,2013-09-22 07:25:00,
2013-09-21 21:30:00,76.6,68.1,30.09,NE,45,6.0,-999.0,75,0.00,,,0.01,Wunderground v.1.15,2013-09-22 07:30:00,
2013-09-21 21:35:00,76.6,68.1,30.09,NE,45,6.0,-999.0,75,0.00,,,0.01,Wunderground v.1.15,2013-09-22 07:35:00,
2013-09-21 21:40:00,76.6,68.1,30.09,NE,45,6.0,-999.0,75,0.00,,,0.01,Wunderground v.1.15,2013-09-22 07:40:00,
2013-09-21 21:45:00,75.5,67.0,30.09,East,90,6.0,-999.0,75,0.01,,,0.01,Wunderground v.1.15,2013-09-22 07:45:00,
2013-09-21 21:50:00,75.5,67.0,30.09,East,90,6.0,-999.0,75,0.01,,,0.01,Wunderground v.1.15,2013-09-22 07:50:00,
2013-09-21 21:55:00,75.5,67.0,30.09,East,90,6.0,-999.0,75,0.01,,,0.01,Wunderground v.1.15,2013-09-22 07:55:00,
2013-09-21 22:00:00,75.4,66.9,30.09,East,80,5.0,5.0,75,0.00,,,0.01,Wunderground v.1.15,2013-09-22 08:00:00,
2013-09-21 22:04:00,75.5,67.0,30.09,East,90,6.0,-999.0,75,0.01,,,0.01,Wunderground v.1.15,2013-09-22 08:04:00,
2013-09-21 22:05:00,75.5,67.0,30.09,East,90,6.0,-999.0,75,0.01,,,0.01,Wunderground v.1.15,2013-09-22 08:05:00,
2013-09-21 22:10:00,75.5,67.0,30.09,East,90,6.0,-999.0,75,0.01,,,0.01,Wunderground v.1.15,2013-09-22 08:10:00,
2013-09-21 22:15:00,75.7,67.6,30.08,NE,45,7.0,-999.0,76,0.01,,,0.01,Wunderground v.1.15,2013-09-22 08:15:00,
2013-09-21 22:20:00,75.7,67.6,30.08,NE,45,7.0,-999.0,76,0.01,,,0.01,Wunderground v.1.15,2013-09-22 08:20:00,
2013-09-21 22:25:00,75.7,67.6,30.08,NE,45,7.0,-999.0,76,0.01,,,0.01,Wunderground v.1.15,2013-09-22 08:25:00,
2013-09-21 22:30:00,75.7,67.6,30.08,NE,45,7.0,-999.0,76,0.01,,,0.01,Wunderground v.1.15,2013-09-22 08:30:00,
2013-09-21 22:35:00,75.7,67.6,30.08,NE,45,7.0,-999.0,76,0.01,,,0.01,Wunderground v.1.15,2013-09-22 08:35:00,
2013-09-21 22:40:00,75.7,67.6,30.08,NE,45,7.0,-999.0,76,0.01,,,0.01,Wunderground v.1.15,2013-09-22 08:40:00,
2013-09-21 22:45:00,75.8,67.3,30.08,NE,45,7.0,-999.0,75,0.00,,,0.01,Wunderground v.1.15,2013-09-22 08:45:00,
2013-09-21 22:50:00,75.8,67.3,30.08,NE,45,7.0,-999.0,75,0.00,,,0.01,Wunderground v.1.15,2013-09-22 08:50:00,
2013-09-21 22:55:00,75.8,67.3,30.08,NE,45,7.0,-999.0,75,0.00,,,0.01,Wunderground v.1.15,2013-09-22 08:55:00,
2013-09-21 23:00:00,75.8,67.3,30.08,NE,45,7.0,-999.0,75,0.00,,,0.01,Wunderground v.1.15,2013-09-22 09:00:00,
2013-09-21 23:05:00,75.8,67.3,30.08,NE,45,7.0,-999.0,75,0.00,,,0.01,Wunderground v.1.15,2013-09-22 09:05:00,
2013-09-21 23:10:00,75.8,67.3,30.08,NE,45,7.0,-999.0,75,0.00,,,0.01,Wunderground v.1.15,2013-09-22 09:10:00,
2013-09-21 23:15:00,76.0,67.9,30.09,NE,45,7.0,-999.0,76,0.00,,,0.01,Wunderground v.1.15,2013-09-22 09:15:00,
2013-09-21 23:20:00,76.0,67.9,30.09,NE,45,7.0,-999.0,76,0.00,,,0.01,Wunderground v.1.15,2013-09-22 09:20:00,
2013-09-21 23:25:00,76.0,67.9,30.09,NE,45,7.0,-999.0,76,0.00,,,0.01,Wunderground v.1.15,2013-09-22 09:25:00,
2013-09-21 23:30:00,76.0,67.9,30.09,NE,45,7.0,-999.0,76,0.00,,,0.01,Wunderground v.1.15,2013-09-22 09:30:00,
2013-09-21 23:35:00,76.0,67.9,30.09,NE,45,7.0,-999.0,76,0.00,,,0.01,Wunderground v.1.15,2013-09-22 09:35:00,
2013-09-21 23:40:00,76.0,67.9,30.09,NE,45,7.0,-999.0,76,0.00,,,0.01,Wunderground v.1.15,2013-09-22 09:40:00,
2013-09-21 23:45:00,75.8,68.1,30.08,NE,45,5.0,-999.0,77,0.00,,,0.01,Wunderground v.1.15,2013-09-22 09:45:00,
2013-09-21 23:50:00,75.8,68.1,30.08,NE,45,5.0,-999.0,77,0.00,,,0.01,Wunderground v.1.15,2013-09-22 09:50:00,
2013-09-21 23:55:00,75.8,68.1,30.08,NE,45,5.0,-999.0,77,0.00,,,0.01,Wunderground v.1.15,2013-09-22 09:55:00,